SKW4939 KMAF-KPHX

Flight info

Callsign SKW4939
Flight time N/A
Altitude 38000
Route INK J4 EWM DRRVR PINNG1
Aircraft CRJ7/M-SDFGIRWY/S

Departure

Time 2026-04-15 19:27
Airport Midland International Air and Space Port (KMAF)

Arrival

Time N/A
Airport Phoenix Sky Harbor International Airport (KPHX)
Time Latitude Longitude Altitude Speed Heading
2026-04-15 18:58 31.93580 -102.20672 2867 ft 0 kts 274°
2026-04-15 19:15 31.93580 -102.20671 2867 ft 1 kts 274°
2026-04-15 19:15 31.93578 -102.20644 2867 ft 4 kts 274°
2026-04-15 19:15 31.93576 -102.20613 2867 ft 4 kts 275°
2026-04-15 19:16 31.93573 -102.20581 2867 ft 4 kts 277°
2026-04-15 19:16 31.93569 -102.20550 2867 ft 4 kts 281°
2026-04-15 19:16 31.93562 -102.20519 2867 ft 4 kts 291°
2026-04-15 19:16 31.93548 -102.20496 2867 ft 4 kts 332°
2026-04-15 19:17 31.93527 -102.20491 2867 ft 4 kts 352°
2026-04-15 19:17 31.93515 -102.20489 2867 ft 0 kts 352°
2026-04-15 19:20 31.93516 -102.20489 2867 ft 0 kts 352°
2026-04-15 19:20 31.93523 -102.20490 2867 ft 6 kts 350°
2026-04-15 19:20 31.93610 -102.20513 2867 ft 16 kts 349°
2026-04-15 19:20 31.93708 -102.20524 2867 ft 0 kts 354°
2026-04-15 19:21 31.93720 -102.20525 2867 ft 5 kts 354°
2026-04-15 19:21 31.93770 -102.20533 2867 ft 9 kts 352°
2026-04-15 19:21 31.93820 -102.20497 2867 ft 10 kts 76°
2026-04-15 19:21 31.93827 -102.20408 2868 ft 13 kts 85°
2026-04-15 19:22 31.93830 -102.20292 2868 ft 15 kts 91°
2026-04-15 19:22 31.93829 -102.20170 2868 ft 15 kts 90°
2026-04-15 19:22 31.93827 -102.20043 2867 ft 16 kts 90°
2026-04-15 19:22 31.93826 -102.19906 2864 ft 18 kts 91°
2026-04-15 19:23 31.93826 -102.19797 2862 ft 8 kts 90°
2026-04-15 19:23 31.93826 -102.19724 2861 ft 10 kts 90°
2026-04-15 19:23 31.93825 -102.19646 2862 ft 10 kts 90°
2026-04-15 19:23 31.93828 -102.19570 2862 ft 9 kts 77°
2026-04-15 19:24 31.93857 -102.19505 2862 ft 5 kts 53°
2026-04-15 19:24 31.93861 -102.19499 2862 ft 0 kts 53°
2026-04-15 19:25 31.93862 -102.19499 2862 ft 2 kts 53°
2026-04-15 19:26 31.93886 -102.19459 2863 ft 9 kts 54°
2026-04-15 19:26 31.93934 -102.19429 2863 ft 8 kts 331°
2026-04-15 19:26 31.93956 -102.19462 2863 ft 6 kts 295°
2026-04-15 19:26 31.94076 -102.19788 2868 ft 83 kts 294°
2026-04-15 19:27 31.94401 -102.20671 2867 ft 150 kts 293°
2026-04-15 19:27 31.94837 -102.21893 3314 ft 168 kts 289°
2026-04-15 19:27 31.95138 -102.23203 4135 ft 168 kts 271°
2026-04-15 19:27 31.94782 -102.24573 4551 ft 190 kts 236°
2026-04-15 19:28 31.94087 -102.26052 5106 ft 221 kts 243°
2026-04-15 19:28 31.93542 -102.27841 5865 ft 243 kts 253°
2026-04-15 19:28 31.93218 -102.29872 6501 ft 262 kts 262°
2026-04-15 19:28 31.93089 -102.32075 7068 ft 276 kts 265°
2026-04-15 19:29 31.92995 -102.34352 7881 ft 281 kts 265°
2026-04-15 19:29 31.92894 -102.36662 8696 ft 284 kts 265°
2026-04-15 19:29 31.92795 -102.39001 9488 ft 288 kts 265°
2026-04-15 19:29 31.92676 -102.41369 10273 ft 292 kts 264°
2026-04-15 19:30 31.92535 -102.43841 10599 ft 313 kts 264°
2026-04-15 19:30 31.92383 -102.46478 10970 ft 332 kts 264°
2026-04-15 19:30 31.92216 -102.49244 11459 ft 344 kts 264°
2026-04-15 19:30 31.92051 -102.52070 12189 ft 348 kts 264°
2026-04-15 19:31 31.91878 -102.54931 12913 ft 352 kts 264°
2026-04-15 19:31 31.91704 -102.57821 13610 ft 356 kts 264°
2026-04-15 19:31 31.91529 -102.60747 14285 ft 360 kts 264°
2026-04-15 19:31 31.91348 -102.63700 14944 ft 364 kts 264°
2026-04-15 19:32 31.91167 -102.66685 15588 ft 367 kts 264°
2026-04-15 19:32 31.90983 -102.69700 16216 ft 371 kts 264°
2026-04-15 19:32 31.90796 -102.72745 16829 ft 375 kts 264°
2026-04-15 19:32 31.90607 -102.75817 17426 ft 378 kts 264°
2026-04-15 19:33 31.90416 -102.78920 17992 ft 382 kts 264°
2026-04-15 19:33 31.90220 -102.82049 18548 ft 385 kts 264°
2026-04-15 19:33 31.90024 -102.85208 19075 ft 388 kts 264°
2026-04-15 19:33 31.89825 -102.88391 19585 ft 392 kts 264°
2026-04-15 19:34 31.89621 -102.91597 20080 ft 395 kts 264°
2026-04-15 19:34 31.89418 -102.94831 20562 ft 398 kts 264°
2026-04-15 19:34 31.89211 -102.98091 21027 ft 401 kts 264°
2026-04-15 19:34 31.89004 -103.01371 21475 ft 404 kts 264°
2026-04-15 19:35 31.88791 -103.04678 21915 ft 407 kts 264°
2026-04-15 19:35 31.88578 -103.08005 22342 ft 409 kts 264°
2026-04-15 19:35 31.88363 -103.11355 22744 ft 412 kts 264°
2026-04-15 19:35 31.88143 -103.14725 23133 ft 415 kts 264°
2026-04-15 19:36 31.87929 -103.18071 23503 ft 417 kts 264°
2026-04-15 19:36 31.87710 -103.21483 23863 ft 420 kts 264°
2026-04-15 19:36 31.87502 -103.24916 24213 ft 422 kts 266°
2026-04-15 19:36 31.87490 -103.28382 24598 ft 426 kts 270°
2026-04-15 19:37 31.87661 -103.31867 24657 ft 427 kts 272°
2026-04-15 19:37 31.87868 -103.35358 24736 ft 428 kts 272°
2026-04-15 19:37 31.88040 -103.38856 24817 ft 428 kts 271°
2026-04-15 19:37 31.88161 -103.42357 24894 ft 429 kts 271°
2026-04-15 19:38 31.88285 -103.45865 24971 ft 429 kts 271°
2026-04-15 19:38 31.88408 -103.49379 25024 ft 431 kts 271°
2026-04-15 19:38 31.88530 -103.52906 25091 ft 432 kts 271°
2026-04-15 19:38 31.88651 -103.56439 25382 ft 433 kts 271°
2026-04-15 19:39 31.88771 -103.59984 25713 ft 435 kts 271°
2026-04-15 19:39 31.88893 -103.63547 26024 ft 437 kts 271°
2026-04-15 19:39 31.89013 -103.67130 26322 ft 439 kts 271°
2026-04-15 19:39 31.89130 -103.70727 26608 ft 441 kts 271°
2026-04-15 19:40 31.89251 -103.74344 26889 ft 443 kts 271°
2026-04-15 19:40 31.89369 -103.77976 27153 ft 445 kts 271°
2026-04-15 19:40 31.89487 -103.81622 27445 ft 446 kts 271°
2026-04-15 19:40 31.89605 -103.85278 27710 ft 448 kts 271°
2026-04-15 19:41 31.89721 -103.88947 27956 ft 450 kts 271°
2026-04-15 19:41 31.89836 -103.92628 28193 ft 451 kts 271°
2026-04-15 19:41 31.89952 -103.96326 28422 ft 453 kts 271°
2026-04-15 19:41 31.90065 -104.00038 28643 ft 455 kts 271°
2026-04-15 19:42 31.90180 -104.03762 28856 ft 456 kts 271°
2026-04-15 19:42 31.90294 -104.07501 29067 ft 458 kts 270°
2026-04-15 19:42 31.90407 -104.11251 29262 ft 459 kts 271°
2026-04-15 19:42 31.90518 -104.15013 29452 ft 461 kts 271°
2026-04-15 19:43 31.90628 -104.18785 29645 ft 462 kts 270°
2026-04-15 19:43 31.90739 -104.22570 29828 ft 464 kts 270°
2026-04-15 19:43 31.90849 -104.26368 30016 ft 465 kts 270°
2026-04-15 19:43 31.90979 -104.30174 30179 ft 466 kts 272°
2026-04-15 19:44 31.91239 -104.33986 30343 ft 468 kts 274°
2026-04-15 19:44 31.91564 -104.37805 30508 ft 469 kts 274°
2026-04-15 19:44 31.91883 -104.41579 30662 ft 471 kts 274°
2026-04-15 19:44 31.92180 -104.45420 30816 ft 472 kts 274°
2026-04-15 19:45 31.92458 -104.49271 30959 ft 473 kts 273°
2026-04-15 19:45 31.92732 -104.53133 31103 ft 474 kts 274°
2026-04-15 19:45 31.93008 -104.57002 31241 ft 475 kts 273°
2026-04-15 19:45 31.93280 -104.60880 31373 ft 476 kts 273°
2026-04-15 19:46 31.93555 -104.64768 31499 ft 477 kts 273°
2026-04-15 19:46 31.93825 -104.68659 31666 ft 477 kts 273°
2026-04-15 19:46 31.94098 -104.72546 31873 ft 476 kts 273°
2026-04-15 19:46 31.94365 -104.76427 32037 ft 476 kts 273°
2026-04-15 19:47 31.94635 -104.80307 32204 ft 475 kts 273°
2026-04-15 19:47 31.94900 -104.84183 32440 ft 472 kts 273°
2026-04-15 19:47 31.95161 -104.87989 33056 ft 461 kts 273°
2026-04-15 19:47 31.95415 -104.91716 33602 ft 452 kts 273°
2026-04-15 19:48 31.95664 -104.95370 34094 ft 444 kts 273°
2026-04-15 19:48 31.95908 -104.98983 34353 ft 442 kts 273°
2026-04-15 19:48 31.96148 -105.02582 34518 ft 441 kts 273°
2026-04-15 19:48 31.96390 -105.06183 34679 ft 441 kts 273°
2026-04-15 19:49 31.96629 -105.09779 34842 ft 440 kts 273°
2026-04-15 19:49 31.96869 -105.13372 35008 ft 440 kts 273°
2026-04-15 19:49 31.97105 -105.16963 35160 ft 440 kts 273°
2026-04-15 19:49 31.97342 -105.20555 35312 ft 439 kts 273°
2026-04-15 19:50 31.97577 -105.24140 35446 ft 439 kts 273°
2026-04-15 19:50 31.97810 -105.27727 35581 ft 439 kts 273°
2026-04-15 19:50 31.98044 -105.31309 35727 ft 439 kts 273°
2026-04-15 19:50 31.98274 -105.34892 35864 ft 438 kts 273°
2026-04-15 19:51 31.98505 -105.38469 35990 ft 438 kts 273°
2026-04-15 19:51 31.98734 -105.42049 36103 ft 438 kts 273°
2026-04-15 19:51 31.98963 -105.45627 36229 ft 438 kts 273°
2026-04-15 19:51 31.99190 -105.49205 36331 ft 438 kts 273°
2026-04-15 19:52 31.99417 -105.52780 36439 ft 438 kts 273°
2026-04-15 19:52 31.99643 -105.56356 36553 ft 438 kts 272°
2026-04-15 19:52 32.00087 -105.63464 36745 ft 438 kts 272°
2026-04-15 19:53 32.00525 -105.70622 36918 ft 438 kts 272°
2026-04-15 19:53 32.00923 -105.77782 37098 ft 438 kts 272°
2026-04-15 19:54 32.01365 -105.84940 37262 ft 438 kts 273°
2026-04-15 19:54 32.01801 -105.92101 37416 ft 438 kts 272°
2026-04-15 19:55 32.02224 -105.99260 37546 ft 439 kts 272°
2026-04-15 19:55 32.02649 -106.06421 37706 ft 438 kts 272°
2026-04-15 19:56 32.03068 -106.13570 37875 ft 437 kts 272°
2026-04-15 19:56 32.03415 -106.19567 37925 ft 438 kts 272°
2026-04-15 19:57 32.03827 -106.26709 37940 ft 441 kts 272°
2026-04-15 19:57 32.04242 -106.33993 37938 ft 444 kts 272°
2026-04-15 19:58 32.04650 -106.41229 37947 ft 447 kts 272°
2026-04-15 19:58 32.05059 -106.48557 37943 ft 449 kts 272°
2026-04-15 19:59 32.05464 -106.55901 37949 ft 449 kts 272°
2026-04-15 19:59 32.05866 -106.63253 37940 ft 449 kts 272°
2026-04-15 20:00 32.06264 -106.70603 37948 ft 449 kts 272°
2026-04-15 20:00 32.06656 -106.77941 37942 ft 448 kts 272°
2026-04-15 20:01 32.07044 -106.85268 37945 ft 447 kts 272°
2026-04-15 20:01 32.07427 -106.92583 37943 ft 447 kts 272°
2026-04-15 20:02 32.07805 -106.99889 37942 ft 446 kts 272°
2026-04-15 20:02 32.08178 -107.07181 37941 ft 445 kts 272°
2026-04-15 20:03 32.08547 -107.14467 37941 ft 445 kts 272°
2026-04-15 20:03 32.08911 -107.21727 37945 ft 444 kts 272°
2026-04-15 20:04 32.09270 -107.28997 37946 ft 444 kts 272°
2026-04-15 20:04 32.09625 -107.36260 37940 ft 443 kts 272°
2026-04-15 20:05 32.09976 -107.43511 37944 ft 443 kts 272°
2026-04-15 20:05 32.10321 -107.50760 37944 ft 442 kts 272°
2026-04-15 20:06 32.10663 -107.58003 37942 ft 442 kts 272°
2026-04-15 20:06 32.11000 -107.65235 37949 ft 442 kts 272°
2026-04-15 20:07 32.11332 -107.72463 37946 ft 441 kts 271°
2026-04-15 20:07 32.11661 -107.79689 37944 ft 441 kts 271°
2026-04-15 20:08 32.11984 -107.86908 37936 ft 440 kts 271°
2026-04-15 20:08 32.12307 -107.94120 37944 ft 440 kts 271°
2026-04-15 20:09 32.12629 -108.01327 37937 ft 440 kts 271°
2026-04-15 20:09 32.12965 -108.08454 37996 ft 422 kts 265°
2026-04-15 20:10 32.13155 -108.11799 38005 ft 400 kts 264°
2026-04-15 20:10 32.13351 -108.15039 38005 ft 393 kts 266°
2026-04-15 20:10 32.13742 -108.21426 38074 ft 388 kts 269°
2026-04-15 20:11 32.14135 -108.27743 38127 ft 385 kts 269°
2026-04-15 20:11 32.14531 -108.34017 38138 ft 382 kts 269°
2026-04-15 20:12 32.14927 -108.40251 38145 ft 381 kts 269°
2026-04-15 20:12 32.15323 -108.46468 38144 ft 379 kts 269°
2026-04-15 20:13 32.15722 -108.52662 38142 ft 377 kts 269°
2026-04-15 20:13 32.16121 -108.58825 38141 ft 376 kts 269°
2026-04-15 20:14 32.16523 -108.64957 38142 ft 374 kts 269°
2026-04-15 20:14 32.16924 -108.71063 38144 ft 373 kts 270°
2026-04-15 20:15 32.17325 -108.77153 38141 ft 372 kts 270°
2026-04-15 20:15 32.17727 -108.83238 38148 ft 372 kts 270°
2026-04-15 20:16 32.18127 -108.89323 38144 ft 372 kts 270°
2026-04-15 20:16 32.18527 -108.95404 38142 ft 371 kts 270°
2026-04-15 20:17 32.18929 -109.01479 38149 ft 371 kts 270°
2026-04-15 20:17 32.19331 -109.07562 38157 ft 372 kts 271°
2026-04-15 20:18 32.19733 -109.13659 38152 ft 373 kts 271°
2026-04-15 20:18 32.20135 -109.19772 38144 ft 374 kts 271°
2026-04-15 20:19 32.20540 -109.25898 38143 ft 375 kts 271°
2026-04-15 20:19 32.20946 -109.32037 38144 ft 376 kts 271°
2026-04-15 20:20 32.21351 -109.38191 38147 ft 376 kts 271°
2026-04-15 20:20 32.21759 -109.44320 38144 ft 377 kts 271°
2026-04-15 20:21 32.22171 -109.50508 38142 ft 378 kts 271°
2026-04-15 20:21 32.22581 -109.56713 38158 ft 380 kts 271°
2026-04-15 20:22 32.22993 -109.62935 38151 ft 381 kts 271°
2026-04-15 20:22 32.23405 -109.69182 38161 ft 382 kts 271°
2026-04-15 20:23 32.23845 -109.75789 38158 ft 383 kts 271°
2026-04-15 20:23 32.24264 -109.82074 38155 ft 384 kts 271°
2026-04-15 20:24 32.24163 -109.85196 38166 ft 379 kts 257°
2026-04-15 20:24 32.23997 -109.91363 38175 ft 383 kts 279°
2026-04-15 20:24 32.24742 -109.94425 37838 ft 392 kts 284°
2026-04-15 20:25 32.25602 -109.97457 37476 ft 396 kts 285°
2026-04-15 20:25 32.26505 -110.00541 37116 ft 398 kts 285°
2026-04-15 20:25 32.27412 -110.03623 36746 ft 396 kts 285°
2026-04-15 20:25 32.28317 -110.06691 36379 ft 395 kts 285°
2026-04-15 20:26 32.29220 -110.09749 36020 ft 394 kts 285°
2026-04-15 20:26 32.30128 -110.12803 35653 ft 393 kts 285°
2026-04-15 20:26 32.31031 -110.15855 35293 ft 393 kts 285°
2026-04-15 20:26 32.31927 -110.18905 34916 ft 393 kts 285°
2026-04-15 20:27 32.32823 -110.21958 34547 ft 394 kts 285°
2026-04-15 20:27 32.33723 -110.25020 34181 ft 395 kts 285°
2026-04-15 20:27 32.34627 -110.28091 33801 ft 396 kts 285°
2026-04-15 20:27 32.35536 -110.31169 33433 ft 397 kts 285°
2026-04-15 20:28 32.36449 -110.34254 33066 ft 398 kts 286°
2026-04-15 20:28 32.37369 -110.37349 32694 ft 399 kts 286°
2026-04-15 20:28 32.37991 -110.39444 32445 ft 400 kts 286°
2026-04-15 20:28 32.38916 -110.42547 32079 ft 400 kts 286°
2026-04-15 20:29 32.39844 -110.45657 31714 ft 401 kts 286°
2026-04-15 20:29 32.40777 -110.48772 31340 ft 402 kts 287°
2026-04-15 20:29 32.41716 -110.51890 30962 ft 402 kts 287°
2026-04-15 20:29 32.42660 -110.55012 30591 ft 403 kts 287°
2026-04-15 20:30 32.43605 -110.58137 30215 ft 403 kts 287°
2026-04-15 20:30 32.44551 -110.61257 29813 ft 403 kts 287°
2026-04-15 20:30 32.45497 -110.64393 29363 ft 406 kts 287°
2026-04-15 20:30 32.46447 -110.67548 28910 ft 407 kts 288°
2026-04-15 20:31 32.47402 -110.70708 28467 ft 408 kts 288°
2026-04-15 20:31 32.48626 -110.73745 28020 ft 411 kts 298°
2026-04-15 20:31 32.50127 -110.76629 27590 ft 412 kts 300°
2026-04-15 20:31 32.51696 -110.79476 27088 ft 410 kts 301°
2026-04-15 20:32 32.53259 -110.82268 26592 ft 403 kts 302°
2026-04-15 20:32 32.54807 -110.85004 26000 ft 397 kts 302°
2026-04-15 20:32 32.56348 -110.87695 25348 ft 393 kts 302°
2026-04-15 20:32 32.57896 -110.90332 24833 ft 386 kts 303°
2026-04-15 20:33 32.59427 -110.92911 24389 ft 379 kts 304°
2026-04-15 20:33 32.60923 -110.95446 23972 ft 372 kts 303°
2026-04-15 20:33 32.62362 -110.97957 23562 ft 365 kts 303°
2026-04-15 20:33 32.63756 -111.00400 23160 ft 360 kts 303°
2026-04-15 20:34 32.65149 -111.02843 22791 ft 355 kts 303°
2026-04-15 20:34 32.66525 -111.05261 22464 ft 352 kts 303°
2026-04-15 20:34 32.67895 -111.07669 22149 ft 352 kts 303°
2026-04-15 20:34 32.69263 -111.10073 21825 ft 351 kts 303°
2026-04-15 20:35 32.70624 -111.12472 21567 ft 349 kts 303°
2026-04-15 20:35 32.71982 -111.14852 21323 ft 348 kts 303°
2026-04-15 20:35 32.73336 -111.17236 21085 ft 348 kts 303°
2026-04-15 20:35 32.74695 -111.19617 20831 ft 349 kts 303°
2026-04-15 20:36 32.76043 -111.22016 20510 ft 351 kts 303°
2026-04-15 20:36 32.77404 -111.24432 20116 ft 352 kts 303°
2026-04-15 20:36 32.78760 -111.26829 19721 ft 346 kts 303°
2026-04-15 20:36 32.80093 -111.29186 19317 ft 341 kts 303°
2026-04-15 20:37 32.81404 -111.31510 18919 ft 336 kts 303°
2026-04-15 20:37 32.82694 -111.33794 18518 ft 328 kts 303°
2026-04-15 20:37 32.83952 -111.36023 18094 ft 321 kts 303°
2026-04-15 20:37 32.85183 -111.38210 17666 ft 316 kts 303°
2026-04-15 20:38 32.86704 -111.40908 17123 ft 310 kts 303°
2026-04-15 20:38 32.87897 -111.43021 16697 ft 307 kts 303°
2026-04-15 20:38 32.89072 -111.45105 16223 ft 308 kts 303°
2026-04-15 20:38 32.90270 -111.47225 15743 ft 308 kts 304°
2026-04-15 20:39 32.91240 -111.48493 15418 ft 308 kts 321°
2026-04-15 20:39 32.93055 -111.49842 14947 ft 308 kts 330°
2026-04-15 20:39 32.95635 -111.51217 14318 ft 306 kts 337°
2026-04-15 20:39 32.97620 -111.52129 13845 ft 305 kts 337°
2026-04-15 20:40 32.99590 -111.53029 13367 ft 301 kts 338°
2026-04-15 20:40 33.01521 -111.53905 12950 ft 293 kts 337°
2026-04-15 20:40 33.02780 -111.54496 12658 ft 283 kts 337°